Weather History for KCCA - April, 2014

Change the Weather History Date:

Wednesday, April 2, 2014

  Actual Average (KFLP) Record (KFLP)
Temperature  
Mean Temperature 62 °F -  
Max Temperature 71 °F 65 °F 84 °F (2006)
Min Temperature 53 °F 43 °F 33 °F (2004)
Degree Days  
Heating Degree Days 3    
Growing Degree Days 12 (Base 50)    
Moisture  
Dew Point 63 °F    
Average Humidity 94    
Maximum Humidity 100    
Minimum Humidity 83    
Precipitation  
Precipitation 0.00 in - - ()
Sea Level Pressure  
Sea Level Pressure 29.90 in    
Wind  
Wind Speed 2 mph (SSE)    
Max Wind Speed 13 mph    
Max Gust Speed 20 mph    
Visibility 6 miles    
Events Rain    
Averages and records for this station are not official NWS values.
T = Trace of Precipitation, MM = Missing Value Source: NWS Daily Summary

Daily Weather History Graph

Daily Weather History Graph

Search for Another Location

Airport or City:

Trip Planner

Search our weather history database for the weather conditions in past years. The results will help you decide how hot, cold, wet, or windy it might be!

Date:

Astronomy

Apr. 02, 2014 Rise Set
Actual Time 6:54 AM CDT 7:32 PM CDT
Civil Twilight 6:29 AM CDT 7:58 PM CDT
Nautical Twilight 5:58 AM CDT 8:28 PM CDT
Astronomical Twilight 5:27 AM CDT 8:59 PM CDT
Moon 8:45 AM CDT (4/2) 10:49 PM CDT (4/2)
Length of Visible Light 13h 28m
Length of Day
12h 37m
Waxing Crescent, 10% of the Moon is Illuminated
Apr 2
Waxing Crescent
Apr 7
First Quarter
Apr 15
Full
Apr 22
Last Quarter
Apr 29
New

Hourly Weather History & Observations

Time (CDT) Temp. Dew Point Humidity Pressure Visibility Wind Dir Wind Speed Gust Speed Precip Events Conditions
12:15 AM 55.4 °F 53.6 °F 94% 29.95 in 5.0 mi Calm Calm - N/A   Clear
12:35 AM 55.4 °F 53.6 °F 94% 29.96 in 7.0 mi Calm Calm - N/A   Clear
12:55 AM 53.6 °F 53.6 °F 100% 29.96 in 5.0 mi Calm Calm - N/A   Scattered Clouds
1:15 AM 55.4 °F 55.4 °F 100% 29.96 in 5.0 mi Calm Calm - N/A   Overcast
1:35 AM 57.2 °F 55.4 °F 94% 29.96 in 6.0 mi Calm Calm - N/A   Overcast
1:55 AM 57.2 °F 57.2 °F 100% 29.96 in 7.0 mi Calm Calm - N/A   Overcast
2:15 AM 59.0 °F 57.2 °F 94% 29.96 in 7.0 mi Calm Calm - N/A   Overcast
2:35 AM 59.0 °F 57.2 °F 94% 29.95 in 7.0 mi Calm Calm - N/A   Overcast
2:55 AM 59.0 °F 57.2 °F 94% 29.94 in 7.0 mi Calm Calm - N/A   Overcast
3:15 AM 59.0 °F 57.2 °F 94% 29.93 in 7.0 mi Calm Calm - N/A   Overcast
3:35 AM 57.2 °F 55.4 °F 94% 29.93 in 6.0 mi Calm Calm - N/A   Scattered Clouds
3:55 AM 57.2 °F 55.4 °F 94% 29.92 in 5.0 mi Calm Calm - N/A   Mostly Cloudy
4:15 AM 57.2 °F 55.4 °F 94% 29.93 in 5.0 mi Calm Calm - N/A   Overcast
4:35 AM 57.2 °F 57.2 °F 100% 29.93 in 5.0 mi Calm Calm - N/A   Overcast
4:55 AM 57.2 °F 57.2 °F 100% 29.93 in 6.0 mi Calm Calm - N/A   Overcast
5:15 AM 57.2 °F 57.2 °F 100% 29.94 in 7.0 mi Calm Calm - N/A   Overcast
5:35 AM 57.2 °F 57.2 °F 100% 29.94 in 7.0 mi Calm Calm - N/A   Overcast
5:55 AM 57.2 °F 57.2 °F 100% 29.93 in 6.0 mi Calm Calm - N/A   Overcast
6:15 AM 57.2 °F 57.2 °F 100% 29.93 in 6.0 mi Calm Calm - N/A   Overcast
7:35 AM 59.0 °F 57.2 °F 94% 29.94 in 7.0 mi Calm Calm - N/A   Overcast
7:55 AM 60.8 °F 57.2 °F 88% 29.94 in 7.0 mi Calm Calm - N/A   Overcast
8:15 AM 60.8 °F 59.0 °F 94% 29.94 in 8.0 mi Calm Calm - N/A   Overcast
8:35 AM 62.6 °F 60.8 °F 94% 29.93 in 7.0 mi Calm Calm - N/A   Overcast
8:55 AM 64.4 °F 62.6 °F 94% 29.93 in 7.0 mi Calm Calm - N/A   Overcast
9:15 AM 66.2 °F 62.6 °F 88% 29.93 in 7.0 mi SSE 6.9 mph - N/A   Overcast
9:35 AM 66.2 °F 62.6 °F 88% 29.93 in 7.0 mi SE 9.2 mph - N/A   Overcast
9:55 AM 68.0 °F 64.4 °F 88% 29.93 in 7.0 mi SSE 8.1 mph - N/A   Overcast
10:15 AM 68.0 °F 64.4 °F 88% 29.93 in 7.0 mi SSE 8.1 mph - N/A   Overcast
10:35 AM 69.8 °F 64.4 °F 83% 29.93 in 7.0 mi SSE 6.9 mph - N/A   Overcast
10:55 AM 68.0 °F 64.4 °F 88% 29.93 in 6.0 mi South 8.1 mph 19.6 mph N/A   Overcast
11:15 AM 68.0 °F 64.4 °F 88% 29.94 in 6.0 mi SSE 12.7 mph 16.1 mph N/A   Overcast
11:35 AM 68.0 °F 64.4 °F 88% 29.93 in 6.0 mi South 9.2 mph - N/A   Overcast
11:55 AM 68.0 °F 64.4 °F 88% 29.93 in 6.0 mi South 9.2 mph - N/A   Overcast
12:15 PM 66.2 °F 64.4 °F 94% 29.92 in 4.0 mi South 9.2 mph - N/A   Overcast
12:55 PM 66.2 °F 64.4 °F 94% 29.92 in 2.5 mi South 8.1 mph - N/A   Overcast
1:15 PM 66.2 °F 64.4 °F 94% 29.91 in 2.5 mi South 9.2 mph - N/A   Overcast
1:35 PM 66.2 °F 64.4 °F 94% 29.91 in 1.2 mi SSE 3.5 mph - N/A   Overcast
1:55 PM 66.2 °F 66.2 °F 100% 29.90 in 0.8 mi SE 5.8 mph - N/A   Overcast
2:15 PM 66.2 °F 66.2 °F 100% 29.90 in 1.0 mi SSE 6.9 mph - N/A   Overcast
2:35 PM 66.2 °F 66.2 °F 100% 29.89 in 2.0 mi SSE 5.8 mph - N/A   Overcast
2:55 PM 66.2 °F 66.2 °F 100% 29.88 in 1.0 mi SSE 5.8 mph - N/A   Overcast
3:15 PM 66.2 °F 66.2 °F 100% 29.88 in 1.0 mi SSE 6.9 mph - N/A   Overcast
3:35 PM 66.2 °F 66.2 °F 100% 29.87 in 1.5 mi SSE 5.8 mph - N/A Rain Light Rain
3:55 PM 66.2 °F 66.2 °F 100% 29.87 in 1.0 mi SE 3.5 mph - N/A Rain Light Rain
4:15 PM 66.2 °F 66.2 °F 100% 29.86 in 2.0 mi SE 3.5 mph - N/A   Overcast
4:35 PM 66.2 °F 66.2 °F 100% 29.86 in 3.0 mi SSE 4.6 mph - N/A   Overcast
4:55 PM 68.0 °F 66.2 °F 94% 29.85 in 3.0 mi SSE 4.6 mph - N/A   Overcast
5:15 PM 68.0 °F 66.2 °F 94% 29.85 in 4.0 mi SSE 5.8 mph - N/A   Overcast
5:35 PM 69.8 °F 68.0 °F 94% 29.84 in 4.0 mi SSE 6.9 mph - N/A   Overcast
5:55 PM 69.8 °F 68.0 °F 94% 29.84 in 5.0 mi SSE 6.9 mph - N/A   Mostly Cloudy
6:15 PM 69.8 °F 68.0 °F 94% 29.84 in 5.0 mi SSE 4.6 mph - N/A   Overcast
6:35 PM 69.8 °F 66.2 °F 88% 29.84 in 7.0 mi SE 4.6 mph - N/A   Overcast
6:55 PM 69.8 °F 68.0 °F 94% 29.84 in 7.0 mi Calm Calm - N/A   Mostly Cloudy
7:15 PM 69.8 °F 68.0 °F 94% 29.84 in 7.0 mi Calm Calm - N/A   Mostly Cloudy
7:35 PM 68.0 °F 66.2 °F 94% 29.84 in 5.0 mi Calm Calm - N/A   Mostly Cloudy
7:55 PM 66.2 °F 66.2 °F 100% 29.83 in 3.0 mi Calm Calm - N/A   Overcast
8:15 PM 66.2 °F 66.2 °F 100% 29.83 in 3.0 mi Calm Calm - N/A   Mostly Cloudy
8:35 PM 66.2 °F 66.2 °F 100% 29.83 in 5.0 mi SE 3.5 mph - N/A   Mostly Cloudy
8:55 PM 69.8 °F 66.2 °F 88% 29.84 in 7.0 mi SSE 3.5 mph - N/A   Scattered Clouds
9:15 PM 69.8 °F 66.2 °F 88% 29.83 in 8.0 mi SE 3.5 mph - N/A   Mostly Cloudy
9:35 PM 69.8 °F 66.2 °F 88% 29.84 in 8.0 mi SSE 5.8 mph - N/A   Mostly Cloudy
9:55 PM 71.6 °F 66.2 °F 83% 29.84 in 8.0 mi SSE 8.1 mph - N/A   Overcast
10:15 PM 71.6 °F 66.2 °F 83% 29.83 in 9.0 mi SE 3.5 mph - N/A   Mostly Cloudy
10:35 PM 71.6 °F 66.2 °F 83% 29.84 in 9.0 mi South 3.5 mph - N/A   Mostly Cloudy
10:55 PM 71.6 °F 66.2 °F 83% 29.85 in 9.0 mi SSE 4.6 mph - N/A   Overcast
11:15 PM 71.6 °F 68.0 °F 88% 29.84 in 8.0 mi South 4.6 mph - N/A   Overcast
11:35 PM 71.6 °F 68.0 °F 88% 29.83 in 9.0 mi South 5.8 mph - N/A   Overcast
11:55 PM 71.6 °F 66.2 °F 83% 29.81 in 9.0 mi SSE 9.2 mph - N/A   Scattered Clouds